Home > Weather > Butare > Past weeks

Flag for Rwanda Past Weather in Butare, Rwanda — Yesterday and Last 2 Weeks

Now
79 °F

Smoke.


Feels Like: 79 °F
Forecast: 50 / 79 °F
Wind: 5 mph from South

Location: Kigali Airport

Current Time: Jun 30, 2016 at 7:38:42 PM

Latest Report: Jun 30, 2016 at 5:00 PM


Visibility: N/A

Pressure: 30.12 "Hg (24.66 "Hg at 1750m altitude)

Humidity: 32%

Dew Point: 46 °F

Location of ButareLocation

Past Weather in Butare — Graph

°F

Butare Temperature Yesterday

Maximum temperature yesterday: 81 °F (at 2:30 PM)
Minimum temperature yesterday: 63 °F (at 7:30 AM)
Average temperature yesterday: 74 °F

High & Low Weather Summary for the Past Weeks

 TemperatureHumidityPressure
High81 °F (Jun 16, 2:00 PM)83% (Jun 16, 7:00 AM)30.33 "Hg (Jun 16, 7:00 AM)
Low59 °F (Jun 28, 6:00 AM)28% (Jun 29, 1:30 PM)30.07 "Hg (Jun 20, 4:00 PM)
Average71 °F55%30.19 "Hg
* Reported Jun 15 5:00 PM — Jun 30 5:00 PM, Butare, Weather by CustomWeather, © 2016

Note: Actual official high and low records may vary slightly from our data, if they occured in-between our weather recording intervals... More about our weather records

Advertising

Butare Weather History for the Previous 24 Hours

Scroll right to see more
 ConditionsComfort  
Time TempWeatherWind HumidityBarometerVisibility
5:00 PM
Thu, Jun 30
79 °FSmoke.5 mph32%30.12 "HgN/A
2:00 PM81 °FSmoke.7 mph32%30.18 "HgN/A
12:00 PM75 °FSmoke.5 mph41%30.27 "HgN/A
11:00 AM73 °FSmoke.10 mph41%30.27 "HgN/A
10:00 AM72 °FSmoke.8 mph44%30.30 "HgN/A
9:00 AM68 °FSmoke.6 mph49%30.30 "HgN/A
8:00 AM63 °FSmoke.No wind64%30.30 "HgN/A
3:00 AM61 °FClear.6 mph63%30.21 "Hg10 mi
2:30 AM63 °FClear.5 mph59%30.21 "Hg10 mi
1:30 AM61 °FClear.3 mph63%30.21 "Hg10 mi
12:00 AM66 °FClear.2 mph49%30.24 "Hg10 mi
11:30 PM
Wed, Jun 29
66 °FClear.2 mph49%30.24 "Hg10 mi
11:00 PM68 °FClear.2 mph46%30.21 "Hg10 mi
9:30 PM70 °FClear.5 mph46%30.21 "Hg10 mi
8:30 PM72 °FClear.3 mph38%30.18 "Hg10 mi
7:30 PM73 °FClear.3 mph33%30.15 "Hg10 mi
7:00 PM77 °FClear.3 mph30%30.15 "Hg10 mi
Weather by CustomWeather, © 2016

See weather overviewHow to use our weather pages